Content
SEND FEEDBACK

Daily
Averages
Monthly
Summary
United Kingdom

FAIRFORD, ENGLAND


Home > Europe > United Kingdom > England
Elevation: 284 feet     Latitude: 51 40N     Longitude: 001 47W

WEATHER
 
SELECT A DAY
Number of Records: 175,912;   Date Range: 7/16/96 - 11/25/14
 
SHARE

PRINT THIS DATA

[ ← Previous Day ]
WEATHER ALMANAC - OCTOBER 12, 2013
[ Next Day → ]
[ °C ]   °F
Weather ElementAverageHighLow
Temperature52 °F57.2 °F (3:23 pm)48.2 °F (10:53 pm)
Dewpoint50.5 °F53.6 °F (8:41 am)46.4 °F (5:25 pm)
Humidity95.2 %100 % (12:05 am)71 % (4:58 pm)
Barometer30.08 in30.14 in (10:58 am)30.02 in (11:30 pm)
Wind Speed13.1 mph24.2 mph (2:42 am)
Wind Gust31.1 mph (3:20 am)
Weather ElementAverage
Visibility5.8 mi
Wind DirectionENE (75.4 °)

Weather ElementTotal
Precipitation0.26 in
Heating Degree Days12.3 (Base 65)
Growing Degree Days2.7 (Base 50)
Averaged from 147 records on October 12, 2013
WEATHER CONDITIONS BREAKOUT
WIND DIRECTION BREAKOUT
WEATHER BY HOUR - OCTOBER 12, 2013
[ °C ]   °F
Local TimeTemperatureDewpointHumidityBarometerVisibilityWind DirectionWind SpeedGust SpeedPrecipitationEventsConditions
12:05 AM50.0 °F50.0 °F100 %30.13 in6.2 miNorth (10°)16.1 mph24.2 mphOvercast
12:08 AM50.0 °F50.0 °F100 %30.13 in6.2 miNorth (10°)18.4 mph27.6 mphRainLight Rain
12:18 AM50.0 °F50.0 °F100 %30.13 in6.2 miNorth (10°)18.4 mph27.6 mphOvercast
12:25 AM50.0 °F50.0 °F100 %30.13 in6.2 miNNE (20°)18.4 mph25.3 mphOvercast
12:26 AM50.0 °F50.0 °F100 %30.13 in6.2 miNorth (10°)18.4 mph25.3 mphOvercast
12:33 AM51.8 °F50.0 °F94 %30.12 in6.2 miNNE (20°)20.7 mph28.8 mphOvercast
12:58 AM50.9 °F50.7 °F99 %30.13 in6.2 miNorth (10°)18.4 mph28.8 mph0.00 inOvercast
1:15 AM50.0 °F50.0 °F100 %30.11 in6.2 miNNE (20°)18.4 mph28.8 mphOvercast
1:28 AM50.0 °F50.0 °F100 %30.11 in6.2 miNNE (20°)16.1 mph26.5 mphOvercast
1:40 AM50.0 °F50.0 °F100 %30.11 in6.2 miNNE (20°)18.4 mph26.5 mphRainLight Rain
1:56 AM50.0 °F50.0 °F100 %30.11 in6.2 miNorth (10°)18.4 mph28.8 mphLight Drizzle
1:58 AM50.0 °F50.0 °F100 %30.12 in6.2 miNNE (20°)19.6 mph28.8 mph0.00 inLight Drizzle
2:04 AM50.0 °F50.0 °F100 %30.10 in6.2 miNNE (20°)19.6 mph27.6 mphLight Drizzle
2:06 AM50.0 °F50.0 °F100 %30.11 in6.2 miNNE (20°)20.7 mph27.6 mphLight Drizzle
2:08 AM50.0 °F50.0 °F100 %30.11 in6.2 miNNE (20°)18.4 mph27.6 mphLight Drizzle
2:11 AM50.0 °F50.0 °F100 %30.10 in6.2 miNNE (20°)20.7 mph27.6 mphOvercast
2:17 AM50.0 °F50.0 °F100 %30.10 in6.2 miNNE (20°)18.4 mph25.3 mphMostly Cloudy
2:31 AM50.0 °F50.0 °F100 %30.10 in6.2 miNNE (20°)19.6 mph27.6 mphMostly Cloudy
2:34 AM50.0 °F50.0 °F100 %30.09 in6.2 miNNE (20°)23.0 mph28.8 mphMostly Cloudy
2:36 AM50.0 °F50.0 °F100 %30.09 in6.2 miNNE (20°)19.6 mph28.8 mphMostly Cloudy
2:40 AM50.0 °F50.0 °F100 %30.09 in6.2 miNNE (20°)20.7 mph28.8 mphMostly Cloudy
2:42 AM50.0 °F50.0 °F100 %30.09 in6.2 miNNE (20°)24.2 mph29.9 mphMostly Cloudy
2:43 AM50.0 °F50.0 °F100 %30.09 in6.2 miNNE (20°)23.0 mph29.9 mphMostly Cloudy
2:46 AM50.0 °F50.0 °F100 %30.09 in6.2 miNNE (20°)23.0 mph29.9 mphMostly Cloudy
2:53 AM51.8 °F50.0 °F94 %30.08 in6.2 miNNE (20°)23.0 mph28.8 mphMostly Cloudy
2:58 AM50.9 °F50.7 °F99 %30.09 in6.2 miNNE (20°)18.4 mph28.8 mph0.00 inMostly Cloudy
3:14 AM51.8 °F50.0 °F94 %30.07 in6.2 miNNE (20°)20.7 mph27.6 mphMostly Cloudy
3:17 AM51.8 °F50.0 °F94 %30.07 in6.2 miNNE (20°)18.4 mph28.8 mphMostly Cloudy
3:20 AM51.8 °F50.0 °F94 %30.07 in6.2 miNNE (20°)21.9 mph31.1 mphMostly Cloudy
3:29 AM51.8 °F50.0 °F94 %30.07 in6.2 miNNE (20°)20.7 mph31.1 mphMostly Cloudy
3:33 AM51.8 °F51.8 °F100 %30.07 in6.2 miNNE (20°)20.7 mph29.9 mphMostly Cloudy
3:39 AM51.8 °F51.8 °F100 %30.07 in6.2 miNNE (20°)23.0 mph31.1 mphMostly Cloudy
3:50 AM51.8 °F51.8 °F100 %30.07 in6.2 miNNE (20°)17.3 mph28.8 mphMostly Cloudy
3:58 AM51.6 °F51.3 °F99 %30.08 in6.2 miNNE (20°)18.4 mph29.9 mphOvercast
4:26 AM51.8 °F51.8 °F100 %30.06 in6.2 miNNE (30°)18.4 mph26.5 mphMostly Cloudy
4:36 AM51.8 °F51.8 °F100 %30.06 in6.2 miNNE (20°)21.9 mph27.6 mphMostly Cloudy
4:58 AM52.2 °F51.8 °F99 %30.06 in6.2 miNNE (20°)20.7 mph29.9 mphMostly Cloudy
4:59 AM51.8 °F51.8 °F100 %30.05 in6.2 miNNE (20°)20.7 mph29.9 mphMostly Cloudy
5:18 AM51.8 °F51.8 °F100 %30.05 in6.2 miNNE (20°)21.9 mph28.8 mphLight Drizzle
5:31 AM51.8 °F51.8 °F100 %30.05 in6.2 miNNE (20°)21.9 mph29.9 mphOvercast
5:33 AM51.8 °F51.8 °F100 %30.05 in6.2 miNNE (20°)21.9 mph29.9 mphLight Drizzle
5:49 AM51.8 °F51.8 °F100 %30.05 in6.2 miNNE (20°)19.6 mph26.5 mphRainLight Rain
5:55 AM51.8 °F51.8 °F100 %30.05 in6.2 miNNE (20°)20.7 mph28.8 mphRainLight Rain
5:58 AM52.2 °F52.0 °F99 %30.06 in6.2 miNNE (20°)18.4 mph28.8 mph0.00 inRainLight Rain
6:07 AM51.8 °F51.8 °F100 %30.04 in6.2 miNNE (20°)21.9 mph28.8 mphRainLight Rain
6:14 AM51.8 °F51.8 °F100 %30.04 in6.2 miNNE (20°)18.4 mph28.8 mphLight Drizzle
6:18 AM51.8 °F51.8 °F100 %30.04 in6.2 miNNE (20°)18.4 mph26.5 mphRainLight Rain
6:34 AM51.8 °F51.8 °F100 %30.04 in6.2 miNNE (20°)21.9 mph27.6 mphLight Drizzle
6:39 AM51.8 °F51.8 °F100 %30.04 in6.2 miNNE (20°)18.4 mph26.5 mphOvercast
6:41 AM51.8 °F51.8 °F100 %30.04 in6.2 miNNE (20°)19.6 mph26.5 mphLight Drizzle
6:48 AM51.8 °F51.8 °F100 %30.04 in6.2 miNNE (20°)19.6 mph28.8 mphRainLight Rain
6:55 AM51.8 °F51.8 °F100 %30.05 in6.2 miNNE (20°)17.3 mph28.8 mphRainLight Rain
6:58 AM52.7 °F52.3 °F99 %30.06 in6.2 miNNE (20°)17.3 mph26.5 mph0.00 inRainLight Rain
7:02 AM51.8 °F51.8 °F100 %30.04 in6.2 miNNE (20°)17.3 mph25.3 mphRainLight Rain
7:04 AM51.8 °F51.8 °F100 %30.04 in6.2 miNNE (20°)18.4 mph25.3 mphRainLight Rain
7:06 AM51.8 °F51.8 °F100 %30.05 in6.2 miNNE (20°)19.6 mph25.3 mphRainLight Rain
7:09 AM51.8 °F51.8 °F100 %30.05 in6.2 miNNE (20°)18.4 mph25.3 mphRainLight Rain
7:17 AM51.8 °F51.8 °F100 %30.05 in6.2 miNNE (20°)17.3 mph26.5 mphRainLight Rain
7:18 AM51.8 °F51.8 °F100 %30.05 in6.2 miNNE (20°)18.4 mph26.5 mphRainLight Rain
7:20 AM51.8 °F51.8 °F100 %30.05 in6.2 miNNE (20°)18.4 mph26.5 mphRainLight Rain
7:37 AM51.8 °F51.8 °F100 %30.05 in6.2 miNNE (20°)16.1 mph25.3 mphRainLight Rain
7:45 AM53.6 °F51.8 °F94 %30.05 in6.2 miNNE (20°)17.3 mph26.5 mphLight Drizzle
7:46 AM53.6 °F51.8 °F94 %30.05 in6.2 miNNE (20°)16.1 mph26.5 mphOvercast
7:54 AM53.6 °F51.8 °F94 %30.05 in6.2 miNNE (30°)16.1 mph23.0 mphOvercast
7:55 AM53.6 °F51.8 °F94 %30.05 in6.2 miNNE (20°)17.3 mph23.0 mphLight Drizzle
7:58 AM52.9 °F52.5 °F99 %30.06 in6.2 miNNE (20°)16.1 mph0.01 inRainLight Rain
8:01 AM53.6 °F51.8 °F94 %30.05 in6.2 miNNE (20°)13.8 mphRainLight Rain
8:18 AM53.6 °F51.8 °F94 %30.05 in5.0 miNNE (20°)15.0 mph23.0 mphRainLight Rain
8:25 AM53.6 °F51.8 °F94 %30.05 in5.6 miNNE (30°)12.7 mph21.9 mphRainLight Rain
8:38 AM53.6 °F51.8 °F94 %30.07 in3.7 miENE (70°)15.0 mph24.2 mphRainLight Rain
8:41 AM53.6 °F53.6 °F100 %30.08 inEast (80°)15.0 mph24.2 mphRainLight Rain
8:42 AM53.6 °F53.6 °F100 %30.08 inENE (70°)16.1 mph24.2 mphRainLight Rain
8:43 AM53.6 °F53.6 °F100 %30.08 in1.7 miENE (70°)13.8 mph24.2 mphRainLight Rain
8:44 AM53.6 °F51.8 °F94 %30.08 in1.7 miENE (70°)12.7 mph24.2 mphRainRain
8:45 AM53.6 °F51.8 °F94 %30.08 in1.5 miENE (70°)12.7 mph24.2 mphRainHeavy Rain
8:47 AM53.6 °F53.6 °F100 %30.08 in1.2 miEast (80°)13.8 mphRainHeavy Rain
8:52 AM53.6 °F53.6 °F100 %30.08 in1.5 miEast (80°)13.8 mphRainLight Rain
8:53 AM53.6 °F53.6 °F100 %30.08 in1.7 miEast (80°)12.7 mphRainLight Rain
8:56 AM53.6 °F53.6 °F100 %30.08 inENE (70°)10.4 mphRainLight Rain
8:58 AM53.6 °F53.6 °F100 %30.09 inENE (70°)10.4 mph0.08 inRainLight Rain
8:59 AM53.6 °F53.6 °F100 %30.08 in2.5 miENE (70°)10.4 mphRainLight Rain
9:06 AM53.6 °F53.6 °F100 %30.08 inENE (60°)8.1 mphRainLight Rain
9:07 AM53.6 °F53.6 °F100 %30.08 inENE (70°)8.1 mphRainLight Rain
9:08 AM53.6 °F53.6 °F100 %30.08 inENE (70°)8.1 mphRainLight Rain
9:09 AM53.6 °F53.6 °F100 %30.08 inENE (70°)8.1 mphRainLight Rain
9:10 AM53.6 °F53.6 °F100 %30.08 inENE (70°)6.9 mphRainLight Rain
9:11 AM53.6 °F53.6 °F100 %30.08 in3.7 miENE (60°)8.1 mphRainLight Rain
9:27 AM51.8 °F51.8 °F100 %30.09 in6.2 miESE (110°)12.7 mph18.4 mphRainLight Rain
9:33 AM51.8 °F51.8 °F100 %30.10 in6.2 miEast (90°)10.4 mphLight Drizzle
9:34 AM51.8 °F51.8 °F100 %30.10 in6.2 miEast (90°)10.4 mphLight Drizzle
9:35 AM51.8 °F51.8 °F100 %30.10 in6.2 miEast (90°)9.2 mphOvercast
9:36 AM51.8 °F50.0 °F94 %30.10 in6.2 miEast (90°)10.4 mphOvercast
9:39 AM51.8 °F50.0 °F94 %30.10 in6.2 miEast (90°)8.1 mphLight Drizzle
9:47 AM51.8 °F51.8 °F100 %30.10 in6.2 miEast (90°)9.2 mphLight Drizzle
9:48 AM51.8 °F51.8 °F100 %30.10 in6.2 miEast (90°)8.1 mphOvercast
9:58 AM51.4 °F51.1 °F99 %30.12 in6.2 miEast (90°)10.4 mph0.02 inOvercast
10:17 AM51.8 °F51.8 °F100 %30.11 in6.2 miEast (90°)10.4 mphOvercast
10:58 AM51.8 °F51.6 °F99 %30.14 in6.2 miEast (90°)6.9 mphMostly Cloudy
11:28 AM53.6 °F51.8 °F94 %30.12 in6.2 miENE (60°)8.1 mphScattered Clouds
11:43 AM53.6 °F50.0 °F88 %30.12 in6.2 miENE (70°)6.9 mphMostly Cloudy
11:58 AM54.0 °F50.0 °F86 %30.13 in6.2 miNE (50°)6.9 mphMostly Cloudy
12:33 PM55.4 °F50.0 °F82 %30.12 in6.2 miENE (70°)9.2 mphMostly Cloudy
12:39 PM55.4 °F48.2 °F77 %30.13 in6.2 miENE (60°)9.2 mphScattered Clouds
12:58 PM54.3 °F47.8 °F79 %30.14 in6.2 miENE (70°)10.4 mphPartly Cloudy
1:14 PM55.4 °F48.2 °F77 %30.13 in6.2 miEast (100°)9.2 mphMostly Cloudy
1:26 PM55.4 °F48.2 °F77 %30.12 in6.2 miEast (80°)6.9 mphMostly Cloudy
1:29 PM55.4 °F48.2 °F77 %30.12 in6.2 miEast (80°)8.1 mphMostly Cloudy
1:48 PM55.4 °F48.2 °F77 %30.12 in6.2 miEast (80°)6.9 mphMostly Cloudy
1:58 PM56.1 °F48.2 °F75 %30.13 in6.2 miEast (80°)8.1 mphScattered Clouds
2:58 PM55.8 °F47.8 °F75 %30.12 in6.2 miEast (100°)5.8 mphClear
3:23 PM57.2 °F48.2 °F72 %30.10 in6.2 miEast (80°)6.9 mphMostly Cloudy
3:26 PM57.2 °F48.2 °F72 %30.10 in6.2 miEast (80°)6.9 mphScattered Clouds
3:58 PM57.0 °F48.6 °F73 %30.11 in6.2 miESE (110°)4.6 mphScattered Clouds
4:58 PM55.8 °F46.6 °F71 %30.09 in6.2 miEast (90°)1.2 mphPartly Cloudy
5:25 PM55.4 °F46.4 °F72 %30.08 in6.2 miCalmRainLight Rain
5:34 PM55.4 °F46.4 °F72 %30.07 in6.2 miCalmPartly Cloudy
5:41 PM53.6 °F48.2 °F82 %30.07 in6.2 miCalmLight Drizzle
5:46 PM53.6 °F46.4 °F77 %30.07 in6.2 miCalmPartly Cloudy
5:58 PM54.3 °F46.6 °F75 %30.08 in6.2 miCalm0.00 inClear
6:58 PM53.2 °F48.2 °F83 %30.08 in6.2 miCalmClear
7:06 PM51.8 °F50.0 °F94 %30.07 in6.2 miSouth (180°)2.3 mphRainLight Rain
7:18 PM51.8 °F50.0 °F94 %30.07 in6.2 miSSE (160°)4.6 mphLight Drizzle
7:58 PM50.5 °F50.4 °F99 %30.07 in6.2 miSouth (170°)4.6 mph0.00 inRainLight Rain
8:06 PM50.0 °F50.0 °F100 %30.06 in6.2 miSouth (190°)3.5 mphRainLight Rain
8:29 PM50.0 °F50.0 °F100 %30.06 in6.2 miSW (230°)2.3 mphMostly Cloudy
8:37 PM50.0 °F50.0 °F100 %30.06 in6.2 miWest (270°)2.3 mphRainLight Rain
8:58 PM50.0 °F49.6 °F99 %30.07 in6.2 miWest (260°)3.5 mph0.01 inLight Drizzle
9:45 PM50.0 °F50.0 °F100 %30.05 in6.2 miSW (220°)3.5 mphRainLight Rain
9:58 PM49.6 °F49.3 °F99 %30.06 in6.2 miSW (220°)3.5 mph0.03 inRainLight Rain
10:23 PM50.0 °F48.2 °F94 %30.04 in5.6 miSW (220°)5.8 mphRainLight Rain
10:29 PM50.0 °F48.2 °F94 %30.04 in6.2 miSW (230°)6.9 mphRainLight Rain
10:53 PM48.2 °F48.2 °F100 %30.03 in6.2 miWSW (250°)8.1 mphOvercast
10:58 PM49.1 °F48.7 °F99 %30.05 in6.2 miWSW (240°)8.1 mph0.03 inMostly Cloudy
11:03 PM48.2 °F48.2 °F100 %30.03 in6.2 miWSW (240°)10.4 mphRainLight Rain
11:22 PM50.0 °F48.2 °F94 %30.03 in5.0 miWSW (250°)10.4 mphRainLight Rain
11:24 PM50.0 °F48.2 °F94 %30.03 in5.0 miWSW (250°)10.4 mphRainLight Rain
11:30 PM50.0 °F48.2 °F94 %30.02 in5.6 miWSW (240°)9.2 mphRainLight Rain
11:35 PM50.0 °F48.2 °F94 %30.02 in5.6 miWSW (250°)10.4 mphRainLight Rain
11:37 PM50.0 °F48.2 °F94 %30.03 in6.2 miWSW (240°)8.1 mphRainLight Rain
11:40 PM50.0 °F48.2 °F94 %30.03 in6.2 miWSW (240°)8.1 mphRainLight Rain
11:41 PM50.0 °F48.2 °F94 %30.02 in6.2 miWSW (240°)8.1 mphRainLight Rain
11:46 PM50.0 °F48.2 °F94 %30.02 in5.6 miSW (230°)8.1 mphRainLight Rain
11:47 PM50.0 °F48.2 °F94 %30.02 in5.6 miSW (230°)8.1 mphRainLight Rain
11:49 PM50.0 °F48.2 °F94 %30.02 in5.6 miSW (230°)6.9 mphRainLight Rain
11:50 PM50.0 °F48.2 °F94 %30.02 in5.0 miSW (230°)8.1 mphRainLight Rain
11:53 PM50.0 °F48.2 °F94 %30.02 in5.0 miWSW (240°)8.1 mphRainLight Rain
11:58 PM50.0 °F50.0 °F100 %30.04 in3.7 miWSW (240°)9.2 mph0.08 inRainLight Rain
Hourly data recorded from EGVA, located miles away from Fairford, England







STORIES FROM OUR PARTNERS